Location: Beneden-Haastrecht
(52.0012°N, 4.7557°E)
Time: 14:36:58
(UTC+00:00)

CRYOSAT 2 - Pass Details

Date: 24 October 2020
Orbit: 714 x 724 km, 92.0° (Epoch: 28 November)

Event Time Altitude Azimuth Distance (km) Brightness Sun altitude
Rises 18:36:01 0° 5° (N) 3,138 7.7 -20.4°
Reaches altitude 10° 18:38:19 10° 7° (N) 2,212 6.9 -20.8°
Maximum altitude 18:43:13 75° 93° (E) 745 4.2 -21.5°
Drops below altitude 10° 18:48:04 10° 180° (S) 2,192 6.8 -22.2°
Sets 18:50:20 0° 182° (S) 3,107 7.6 -22.6°
